,,,PA_Meas_PMT16A,,PR_Meas_QMR101_102,,RH_Meas_QMH101,,SR_Meas_QMS101,,TA_Meas_QMH101,,GenWind,,GenWind,
date,time,status,PA,status,PR,status,RH,status,SR,status,TA,status,DirAvg,status,SpdAvg,
2010-08-06, 00:00:04,VALID,1004.35,VALID,0,INVALID,114.059,VALID,0,VALID,25.4344,VALID,2,VALID,0,
2010-08-06, 00:01:04,VALID,1004.33,VALID,0,INVALID,114.029,VALID,0.100563,VALID,25.4149,VALID,2,VALID,0,
2010-08-06, 00:02:04,VALID,1004.32,VALID,0,INVALID,114.037,VALID,0,VALID,25.376,VALID,2,VALID,0,
2010-08-06, 00:03:04,VALID,1004.29,VALID,0,INVALID,113.998,VALID,0,VALID,25.3565,VALID,359,VALID,0.826563,
2010-08-06, 00:04:04,VALID,1004.26,VALID,0,INVALID,113.93,VALID,0,VALID,25.337,VALID,357,VALID,0.862109,
2010-08-06, 00:05:04,VALID,1004.23,VALID,0,INVALID,113.968,VALID,0,VALID,25.3176,VALID,356,VALID,0.685547,
2010-08-06, 00:06:04,VALID,1004.2,VALID,0,INVALID,113.823,VALID,0.100563,VALID,25.3176,VALID,354,VALID,0.701563,
2010-08-06, 00:07:04,VALID,1004.22,VALID,0,INVALID,113.876,VALID,0,VALID,25.3176,VALID,354,VALID,0.625,
2010-08-06, 00:08:04,VALID,1004.23,VALID,0,INVALID,113.846,VALID,0,VALID,25.2962,VALID,354,VALID,0.644922,
2010-08-06, 00:09:04,VALID,1004.22,VALID,0,INVALID,113.777,VALID,0.100563,VALID,25.3176,VALID,349,VALID,0.751562,
2010-08-06, 00:10:04,VALID,1004.18,VALID,0,INVALID,113.663,VALID,0.100563,VALID,25.3565,VALID,344,VALID,0.434375,
2010-08-06, 00:11:04,VALID,1004.15,VALID,0,INVALID,113.693,VALID,0.100563,VALID,25.376,VALID,349,VALID,0.382422,
2010-08-06, 00:12:04,VALID,1004.17,VALID,0,INVALID,113.663,VALID,0,VALID,25.3955,VALID,345,VALID,0.327734,
2010-08-06, 00:13:04,VALID,1004.17,VALID,0,INVALID,113.686,VALID,0,VALID,25.4344,VALID,345,VALID,0.153516,
2010-08-06, 00:14:04,VALID,1004.18,VALID,0,INVALID,113.823,VALID,0,VALID,25.4149,VALID,345,VALID,0.390234,
2010-08-06, 00:15:04,VALID,1004.21,VALID,0,INVALID,113.968,VALID,0,VALID,25.376,VALID,345,VALID,0.315234,
2010-08-06, 00:16:04,VALID,1004.19,VALID,0,INVALID,114.021,VALID,0.100563,VALID,25.3565,VALID,345,VALID,0.366797,
2010-08-06, 00:17:04,VALID,1004.23,VALID,0,INVALID,114.052,VALID,0.100563,VALID,25.2981,VALID,345,VALID,0.264062,
2010-08-06, 00:18:04,VALID,1004.26,VALID,0,INVALID,114.029,VALID,0,VALID,25.2981,VALID,345,VALID,0.210938,
2010-08-06, 00:19:04,VALID,1004.22,VALID,0,INVALID,114.014,VALID,0.100563,VALID,25.2786,VALID,345,VALID,0.209375,
2010-08-06, 00:20:04,VALID,1004.2,VALID,0,INVALID,114.006,VALID,0,VALID,25.2572,VALID,345,VALID,0.250391,
2010-08-06, 00:21:04,VALID,1004.2,VALID,0,INVALID,114.021,VALID,0,VALID,25.2397,VALID,345,VALID,0.201172,
2010-08-06, 00:22:04,VALID,1004.18,VALID,0,INVALID,114.029,VALID,0.100563,VALID,25.2202,VALID,345,VALID,0.139844,
2010-08-06, 00:23:04,VALID,1004.23,VALID,0,INVALID,113.998,VALID,0.100563,VALID,25.2202,VALID,345,VALID,0.0507813,
2010-08-06, 00:24:04,VALID,1004.24,VALID,0,INVALID,113.953,VALID,0.100563,VALID,25.1813,VALID,345,VALID,0,
2010-08-06, 00:25:04,VALID,1004.25,VALID,0,INVALID,113.937,VALID,0,VALID,25.1599,VALID,345,VALID,0,
2010-08-06, 00:26:04,VALID,1004.26,VALID,0,INVALID,113.899,VALID,0.100563,VALID,25.1618,VALID,345,VALID,0,
2010-08-06, 00:27:04,VALID,1004.22,VALID,0,INVALID,113.869,VALID,0.100563,VALID,25.1404,VALID,345,VALID,0.0992187,
2010-08-06, 00:28:04,VALID,1004.23,VALID,0,INVALID,113.892,VALID,0.100563,VALID,25.1423,VALID,345,VALID,0.422656,
2010-08-06, 00:29:04,VALID,1004.2,VALID,0,INVALID,113.838,VALID,0.100563,VALID,25.1229,VALID,345,VALID,0.198047,
2010-08-06, 00:30:04,VALID,1004.19,VALID,0,INVALID,113.762,VALID,0,VALID,25.1015,VALID,345,VALID,0.125391,
2010-08-06, 00:31:04,VALID,1004.16,VALID,0,INVALID,113.708,VALID,0.100563,VALID,25.1034,VALID,345,VALID,0.221875,
2010-08-06, 00:32:04,VALID,1004.17,VALID,0,INVALID,113.747,VALID,0.100563,VALID,25.1034,VALID,345,VALID,0.28125,
2010-08-06, 00:33:04,VALID,1004.14,VALID,0,INVALID,113.762,VALID,0.100563,VALID,25.0644,VALID,345,VALID,0.342187,
2010-08-06, 00:34:04,VALID,1004.14,VALID,0,INVALID,113.724,VALID,0.100563,VALID,25.0236,VALID,345,VALID,0.239063,
2010-08-06, 00:35:04,VALID,1004.1,VALID,0,INVALID,113.602,VALID,0,VALID,25.0644,VALID,345,VALID,0.157813,
2010-08-06, 00:36:04,VALID,1004.07,VALID,0,INVALID,113.533,VALID,0,VALID,25.0644,VALID,345,VALID,0,
2010-08-06, 00:37:04,VALID,1004.04,VALID,0,INVALID,113.541,VALID,0.100563,VALID,25.0839,VALID,345,VALID,0,
2010-08-06, 00:38:04,VALID,1004.04,VALID,0,INVALID,113.548,VALID,0.100563,VALID,25.0644,VALID,345,VALID,0.00195313,
2010-08-06, 00:39:04,VALID,1004.03,VALID,0,INVALID,113.548,VALID,0,VALID,25.045,VALID,345,VALID,0.0273438,
2010-08-06, 00:40:04,VALID,1004.09,VALID,0,INVALID,113.556,VALID,0.100563,VALID,25.045,VALID,345,VALID,0.0945313,
2010-08-06, 00:41:04,VALID,1004.11,VALID,0,INVALID,113.502,VALID,0,VALID,25.0255,VALID,345,VALID,0.396875,
2010-08-06, 00:42:04,VALID,1004.09,VALID,0,INVALID,113.48,VALID,0.100563,VALID,25.0255,VALID,345,VALID,0.215234,
2010-08-06, 00:43:04,VALID,1004.12,VALID,0,INVALID,113.419,VALID,0,VALID,25.006,VALID,345,VALID,0.258984,
2010-08-06, 00:44:04,VALID,1004.08,VALID,0,INVALID,113.434,VALID,0.100563,VALID,24.9866,VALID,345,VALID,0.298828,
2010-08-06, 00:45:04,VALID,1004.07,VALID,0,INVALID,113.411,VALID,0.100563,VALID,24.9671,VALID,345,VALID,0.0730469,
2010-08-06, 00:46:04,VALID,1004.05,VALID,0,INVALID,113.304,VALID,0.100563,VALID,24.9652,VALID,345,VALID,0,
2010-08-06, 00:47:04,VALID,1004.04,VALID,0,INVALID,113.098,VALID,0.100563,VALID,25.006,VALID,345,VALID,0,
2010-08-06, 00:48:04,VALID,1004.02,VALID,0,INVALID,112.991,VALID,0.100563,VALID,25.0236,VALID,345,VALID,0.0316406,
2010-08-06, 00:49:04,VALID,1004.06,VALID,0,INVALID,113.007,VALID,0,VALID,25.045,VALID,345,VALID,0.376172,
2010-08-06, 00:50:04,VALID,1004.02,VALID,0,INVALID,113.091,VALID,0,VALID,25.045,VALID,345,VALID,0.431641,
2010-08-06, 00:51:04,VALID,1004.04,VALID,0,INVALID,113.068,VALID,0.100563,VALID,25.045,VALID,346,VALID,0.593359,
2010-08-06, 00:52:04,VALID,1004.04,VALID,0,INVALID,112.946,VALID,0.100563,VALID,25.045,VALID,346,VALID,0.635547,
2010-08-06, 00:53:04,VALID,1004.02,VALID,0,INVALID,112.938,VALID,0.100563,VALID,25.045,VALID,346,VALID,0.676953,
2010-08-06, 00:54:04,VALID,1004.01,VALID,0,INVALID,112.846,VALID,0.100563,VALID,25.0431,VALID,356,VALID,0.671094,
2010-08-06, 00:55:04,VALID,1004.01,VALID,0,INVALID,112.846,VALID,0.100563,VALID,25.045,VALID,356,VALID,0.570703,
2010-08-06, 00:56:04,VALID,1004.01,VALID,0,INVALID,112.808,VALID,0.100563,VALID,25.0236,VALID,356,VALID,0.162109,
2010-08-06, 00:57:04,VALID,1004.01,VALID,0,INVALID,112.732,VALID,0.100563,VALID,25.0644,VALID,356,VALID,0.0628906,
2010-08-06, 00:58:04,VALID,1003.99,VALID,0,INVALID,112.686,VALID,0.100563,VALID,25.0644,VALID,355,VALID,0,
2010-08-06, 00:59:04,VALID,1003.97,VALID,0,INVALID,112.572,VALID,0.100563,VALID,25.1229,VALID,356,VALID,0,
2010-08-06, 01:00:04,VALID,1003.99,VALID,0,INVALID,112.404,VALID,0.100563,VALID,25.1423,VALID,355,VALID,0.390234,
2010-08-06, 01:01:04,VALID,1003.96,VALID,0,INVALID,112.267,VALID,0,VALID,25.2007,VALID,355,VALID,0.289844,
2010-08-06, 01:02:04,VALID,1003.93,VALID,0,INVALID,112.152,VALID,0.100563,VALID,25.2397,VALID,355,VALID,0.2625,
2010-08-06, 01:03:04,VALID,1003.9,VALID,0,INVALID,112.068,VALID,0,VALID,25.2592,VALID,356,VALID,0.104687,
2010-08-06, 01:04:04,VALID,1003.89,VALID,0,INVALID,112.007,VALID,0,VALID,25.2767,VALID,356,VALID,0,
2010-08-06, 01:05:04,VALID,1003.87,VALID,0,INVALID,111.984,VALID,0.100563,VALID,25.3176,VALID,356,VALID,0,
2010-08-06, 01:06:04,VALID,1003.82,VALID,0,INVALID,111.9,VALID,0.100563,VALID,25.337,VALID,355,VALID,0.00507812,
2010-08-06, 01:07:04,VALID,1003.81,VALID,0,INVALID,111.855,VALID,0.100563,VALID,25.3351,VALID,356,VALID,0.198437,
2010-08-06, 01:08:04,VALID,1003.77,VALID,0,INVALID,111.832,VALID,0,VALID,25.376,VALID,356,VALID,0.345703,
2010-08-06, 01:09:04,VALID,1003.76,VALID,0,INVALID,111.771,VALID,0.100563,VALID,25.3955,VALID,356,VALID,0.145703,
2010-08-06, 01:10:04,VALID,1003.78,VALID,0,INVALID,111.816,VALID,0,VALID,25.3955,VALID,356,VALID,0.280859,
2010-08-06, 01:11:04,VALID,1003.77,VALID,0,INVALID,111.862,VALID,0.100563,VALID,25.376,VALID,355,VALID,0.251563,
2010-08-06, 01:12:04,VALID,1003.8,VALID,0,INVALID,111.961,VALID,0,VALID,25.3565,VALID,355,VALID,0.110547,
2010-08-06, 01:13:04,VALID,1003.85,VALID,0,INVALID,111.954,VALID,0,VALID,25.3565,VALID,355,VALID,0,
2010-08-06, 01:14:04,VALID,1003.84,VALID,0,INVALID,111.908,VALID,0.100563,VALID,25.3565,VALID,355,VALID,0,
2010-08-06, 01:15:04,VALID,1003.82,VALID,0,INVALID,111.87,VALID,0,VALID,25.3565,VALID,355,VALID,0,
2010-08-06, 01:16:04,VALID,1003.82,VALID,0,INVALID,111.893,VALID,0.100563,VALID,25.376,VALID,330,VALID,0,
2010-08-06, 01:17:04,VALID,1003.79,VALID,0,INVALID,111.931,VALID,0,VALID,25.3565,VALID,330,VALID,0,
2010-08-06, 01:18:04,VALID,1003.77,VALID,0,INVALID,111.885,VALID,0,VALID,25.3779,VALID,330,VALID,0.291797,
2010-08-06, 01:19:04,VALID,1003.71,VALID,0,INVALID,111.786,VALID,0,VALID,25.376,VALID,330,VALID,0.287891,
2010-08-06, 01:20:04,VALID,1003.68,VALID,0,INVALID,111.809,VALID,0,VALID,25.3741,VALID,329,VALID,0.0902344,
2010-08-06, 01:21:04,VALID,1003.66,VALID,0,INVALID,111.839,VALID,0,VALID,25.3955,VALID,329,VALID,0.270312,
2010-08-06, 01:22:04,VALID,1003.61,VALID,0,INVALID,111.908,VALID,0.100563,VALID,25.3955,VALID,333,VALID,0.448047,
2010-08-06, 01:23:04,VALID,1003.62,VALID,0,INVALID,111.946,VALID,0,VALID,25.376,VALID,333,VALID,0.228516,
2010-08-06, 01:24:04,VALID,1003.63,VALID,0,INVALID,111.992,VALID,0.100563,VALID,25.3565,VALID,333,VALID,0.344531,
2010-08-06, 01:25:04,VALID,1003.67,VALID,0,INVALID,112.03,VALID,0,VALID,25.3565,VALID,333,VALID,0.352734,
2010-08-06, 01:26:04,VALID,1003.7,VALID,0,INVALID,112.061,VALID,0.100563,VALID,25.337,VALID,333,VALID,0.365234,
2010-08-06, 01:27:04,VALID,1003.76,VALID,0,INVALID,112.045,VALID,0.100563,VALID,25.3565,VALID,333,VALID,0.337109,
2010-08-06, 01:28:04,VALID,1003.83,VALID,0,INVALID,112.038,VALID,0.100563,VALID,25.3565,VALID,64,VALID,0.684375,
2010-08-06, 01:29:04,VALID,1003.81,VALID,0,INVALID,112.068,VALID,0.100563,VALID,25.337,VALID,86,VALID,0.759766,
2010-08-06, 01:30:04,VALID,1003.83,VALID,0,INVALID,112.061,VALID,0.100563,VALID,25.3565,VALID,106,VALID,0.781641,
2010-08-06, 01:31:04,VALID,1003.82,VALID,0,INVALID,112.007,VALID,0,VALID,25.3565,VALID,157,VALID,1.35703,
2010-08-06, 01:32:04,VALID,1003.75,VALID,0,INVALID,111.908,VALID,0,VALID,25.3955,VALID,170,VALID,0.453906,
2010-08-06, 01:33:04,VALID,1003.7,VALID,0,INVALID,112.053,VALID,0,VALID,25.3351,VALID,208,VALID,1.19102,
2010-08-06, 01:34:04,VALID,1003.65,VALID,0,INVALID,112.038,VALID,0.100563,VALID,25.376,VALID,215,VALID,0.247266,
2010-08-06, 01:35:04,VALID,1003.61,VALID,0,INVALID,112.007,VALID,0.100563,VALID,25.413,VALID,215,VALID,0.480078,
2010-08-06, 01:36:04,VALID,1003.6,VALID,0,INVALID,112.015,VALID,0.100563,VALID,25.4734,VALID,215,VALID,0.225781,
2010-08-06, 01:37:04,VALID,1003.6,VALID,0,INVALID,112.068,VALID,0,VALID,25.4928,VALID,215,VALID,0.196094,
2010-08-06, 01:38:04,VALID,1003.58,VALID,0,INVALID,112.183,VALID,0.100563,VALID,25.4928,VALID,215,VALID,0.569531,
2010-08-06, 01:39:04,VALID,1003.59,VALID,0,INVALID,112.32,VALID,0.100563,VALID,25.4714,VALID,215,VALID,0.389844,
2010-08-06, 01:40:04,VALID,1003.59,VALID,0,INVALID,112.48,VALID,0,VALID,25.4539,VALID,215,VALID,0.507813,
2010-08-06, 01:41:04,VALID,1003.57,VALID,0,INVALID,112.595,VALID,0,VALID,25.4753,VALID,215,VALID,0.374219,
2010-08-06, 01:42:04,VALID,1003.58,VALID,0,INVALID,112.679,VALID,0,VALID,25.4734,VALID,135,VALID,0.558203,
2010-08-06, 01:43:04,VALID,1003.58,VALID,0,INVALID,112.801,VALID,0,VALID,25.5337,VALID,83,VALID,0.428516,
2010-08-06, 01:44:04,VALID,1003.58,VALID,0,INVALID,112.907,VALID,0,VALID,25.5532,VALID,46,VALID,0.786328,
2010-08-06, 01:45:04,VALID,1003.57,VALID,0,INVALID,112.968,VALID,0,VALID,25.5727,VALID,13,VALID,0.664063,
2010-08-06, 01:46:04,VALID,1003.54,VALID,0,INVALID,113.098,VALID,0,VALID,25.5532,VALID,3,VALID,0.495703,
2010-08-06, 01:47:04,VALID,1003.55,VALID,0,INVALID,113.167,VALID,0,VALID,25.5727,VALID,330,VALID,0.361328,
2010-08-06, 01:48:04,VALID,1003.51,VALID,0,INVALID,113.213,VALID,0,VALID,25.5727,VALID,291,VALID,0.731641,
2010-08-06, 01:49:04,VALID,1003.54,VALID,0,INVALID,113.365,VALID,0,VALID,25.5921,VALID,305,VALID,0.626953,
2010-08-06, 01:50:04,VALID,1003.55,VALID,0,INVALID,113.51,VALID,0,VALID,25.6116,VALID,301,VALID,0.505078,
2010-08-06, 01:51:04,VALID,1003.55,VALID,0,INVALID,113.548,VALID,0,VALID,25.5707,VALID,301,VALID,0.0046875,
2010-08-06, 01:52:04,VALID,1003.57,VALID,0,INVALID,113.64,VALID,0,VALID,25.5902,VALID,301,VALID,0.211719,
2010-08-06, 01:53:04,VALID,1003.58,VALID,0,INVALID,113.769,VALID,0,VALID,25.6097,VALID,358,VALID,0.673828,
2010-08-06, 01:54:04,VALID,1003.52,VALID,0,INVALID,113.899,VALID,0,VALID,25.6116,VALID,4,VALID,0.372266,
2010-08-06, 01:55:04,VALID,1003.56,VALID,0,INVALID,113.953,VALID,0,VALID,25.6097,VALID,4,VALID,0.255469,
2010-08-06, 01:56:04,VALID,1003.56,VALID,0,INVALID,114.006,VALID,0,VALID,25.6292,VALID,4,VALID,0,
2010-08-06, 01:57:04,VALID,1003.56,VALID,0,INVALID,114.029,VALID,0,VALID,25.6292,VALID,4,VALID,0.00195313,
2010-08-06, 01:58:04,VALID,1003.58,VALID,0,INVALID,114.105,VALID,0,VALID,25.6311,VALID,4,VALID,0,
2010-08-06, 01:59:04,VALID,1003.57,VALID,0,INVALID,114.151,VALID,0,VALID,25.6097,VALID,4,VALID,0,
2010-08-06, 02:00:04,VALID,1003.56,VALID,0,INVALID,114.136,VALID,0.100563,VALID,25.6292,VALID,4,VALID,0.105078,
2010-08-06, 02:01:04,VALID,1003.57,VALID,0,INVALID,114.22,VALID,0,VALID,25.6292,VALID,4,VALID,0.115234,
2010-08-06, 02:02:04,VALID,1003.58,VALID,0,INVALID,114.204,VALID,0,VALID,25.6077,VALID,4,VALID,0.118359,
2010-08-06, 02:03:04,VALID,1003.63,VALID,0,INVALID,114.227,VALID,0,VALID,25.6486,VALID,4,VALID,0.160547,
2010-08-06, 02:04:04,VALID,1003.63,VALID,0,INVALID,114.227,VALID,0,VALID,25.6876,VALID,4,VALID,0,
2010-08-06, 02:05:04,VALID,1003.65,VALID,0,INVALID,114.311,VALID,0,VALID,25.6876,VALID,4,VALID,0,
2010-08-06, 02:06:04,VALID,1003.64,VALID,0,INVALID,114.273,VALID,0,VALID,25.6876,VALID,4,VALID,0,
2010-08-06, 02:07:04,VALID,1003.67,VALID,0,INVALID,114.265,VALID,0,VALID,25.6876,VALID,4,VALID,0.157031,
2010-08-06, 02:08:04,VALID,1003.64,VALID,0,INVALID,114.273,VALID,0.100563,VALID,25.6876,VALID,4,VALID,0,
2010-08-06, 02:09:04,VALID,1003.65,VALID,0,INVALID,114.288,VALID,0,VALID,25.6681,VALID,4,VALID,0.00976563,
2010-08-06, 02:10:04,VALID,1003.66,VALID,0,INVALID,114.288,VALID,0,VALID,25.6681,VALID,83,VALID,0.612109,
2010-08-06, 02:11:04,VALID,1003.64,VALID,0,INVALID,114.304,VALID,0,VALID,25.6681,VALID,104,VALID,0.486328,
2010-08-06, 02:12:04,VALID,1003.63,VALID,0,INVALID,114.281,VALID,0,VALID,25.6077,VALID,104,VALID,0.00585938,
2010-08-06, 02:13:04,VALID,1003.61,VALID,0,INVALID,114.265,VALID,0,VALID,25.6077,VALID,104,VALID,0,
2010-08-06, 02:14:04,VALID,1003.57,VALID,0,INVALID,114.235,VALID,0,VALID,25.6486,VALID,70,VALID,0.562891,
2010-08-06, 02:15:04,VALID,1003.59,VALID,0,INVALID,114.235,VALID,0.100563,VALID,25.6272,VALID,289,VALID,0.411328,
2010-08-06, 02:16:04,VALID,1003.57,VALID,0,INVALID,114.204,VALID,0,VALID,25.6895,VALID,289,VALID,0.139062,
2010-08-06, 02:17:04,VALID,1003.58,VALID,0,INVALID,114.242,VALID,0,VALID,25.6486,VALID,289,VALID,0.264844,
2010-08-06, 02:18:04,VALID,1003.57,VALID,0,INVALID,114.227,VALID,0,VALID,25.6681,VALID,289,VALID,0.312891,
2010-08-06, 02:19:04,VALID,1003.59,VALID,0,INVALID,114.227,VALID,0,VALID,25.6895,VALID,289,VALID,0,
2010-08-06, 02:20:04,VALID,1003.58,VALID,0,INVALID,114.235,VALID,0,VALID,25.6876,VALID,289,VALID,0,
2010-08-06, 02:21:04,VALID,1003.59,VALID,0,INVALID,114.281,VALID,0,VALID,25.6895,VALID,289,VALID,0,
2010-08-06, 02:22:04,VALID,1003.61,VALID,0,INVALID,114.288,VALID,0,VALID,25.6681,VALID,289,VALID,0,
2010-08-06, 02:23:04,VALID,1003.63,VALID,0,INVALID,114.288,VALID,0.100563,VALID,25.6486,VALID,289,VALID,0.175,
2010-08-06, 02:24:04,VALID,1003.64,VALID,0,INVALID,114.296,VALID,0,VALID,25.6292,VALID,289,VALID,0.305859,
2010-08-06, 02:25:04,VALID,1003.65,VALID,0,INVALID,114.296,VALID,0.100563,VALID,25.5883,VALID,289,VALID,0.293359,
2010-08-06, 02:26:04,VALID,1003.67,VALID,0,INVALID,114.258,VALID,0,VALID,25.6097,VALID,226,VALID,0.596875,
2010-08-06, 02:27:04,VALID,1003.68,VALID,0,INVALID,114.227,VALID,0,VALID,25.5902,VALID,184,VALID,0.819531,
2010-08-06, 02:28:05,VALID,1003.7,VALID,0,INVALID,114.25,VALID,0,VALID,25.5513,VALID,182,VALID,1.10195,
2010-08-06, 02:29:05,VALID,1003.69,VALID,0,INVALID,114.242,VALID,0,VALID,25.5337,VALID,167,VALID,1.38281,
2010-08-06, 02:30:05,VALID,1003.7,VALID,0,INVALID,114.479,VALID,0,VALID,25.3565,VALID,184,VALID,1.85547,
2010-08-06, 02:31:05,VALID,1003.69,VALID,0,INVALID,114.426,VALID,0,VALID,25.3176,VALID,165,VALID,1.04922,
2010-08-06, 02:32:05,VALID,1003.7,VALID,0,INVALID,114.395,VALID,0,VALID,25.2397,VALID,189,VALID,0.798828,
2010-08-06, 02:33:05,VALID,1003.69,VALID,0,INVALID,114.372,VALID,0,VALID,25.2202,VALID,145,VALID,1.18516,
2010-08-06, 02:34:05,VALID,1003.65,VALID,0,INVALID,114.235,VALID,0,VALID,25.2397,VALID,177,VALID,0.886719,
2010-08-06, 02:35:05,VALID,1003.65,VALID,0,INVALID,114.12,VALID,0.100563,VALID,25.2592,VALID,207,VALID,0.692187,
2010-08-06, 02:36:05,VALID,1003.66,VALID,0,INVALID,114.067,VALID,0,VALID,25.2592,VALID,195,VALID,0.830859,
2010-08-06, 02:37:05,VALID,1003.63,VALID,0,INVALID,113.93,VALID,0,VALID,25.2592,VALID,204,VALID,1.01523,
2010-08-06, 02:38:05,VALID,1003.66,VALID,0,INVALID,113.792,VALID,0,VALID,25.2786,VALID,166,VALID,0.342187,
2010-08-06, 02:39:05,VALID,1003.63,VALID,0,INVALID,113.8,VALID,0,VALID,25.3176,VALID,276,VALID,0.686328,
2010-08-06, 02:40:05,VALID,1003.59,VALID,0,INVALID,113.762,VALID,0,VALID,25.3604,VALID,301,VALID,0.610937,
2010-08-06, 02:41:05,VALID,1003.56,VALID,0,INVALID,113.647,VALID,0,VALID,25.337,VALID,322,VALID,0.614844,
2010-08-06, 02:42:05,VALID,1003.48,VALID,0,INVALID,113.617,VALID,0,VALID,25.3974,VALID,255,VALID,1.04414,
2010-08-06, 02:43:05,VALID,1003.5,VALID,0,INVALID,113.579,VALID,0,VALID,25.3974,VALID,330,VALID,0.714063,
2010-08-06, 02:44:05,VALID,1003.55,VALID,0,INVALID,113.564,VALID,0,VALID,25.4169,VALID,291,VALID,0.2125,
2010-08-06, 02:45:05,VALID,1003.58,VALID,0,INVALID,113.495,VALID,0,VALID,25.3955,VALID,300,VALID,1.32305,
2010-08-06, 02:46:05,VALID,1003.58,VALID,0,INVALID,113.411,VALID,0,VALID,25.4169,VALID,299,VALID,0.373047,
2010-08-06, 02:47:05,VALID,1003.54,VALID,0,INVALID,113.564,VALID,0,VALID,25.4169,VALID,298,VALID,0.50625,
2010-08-06, 02:48:05,VALID,1003.5,VALID,0,INVALID,113.525,VALID,0,VALID,25.4363,VALID,290,VALID,0.348437,
2010-08-06, 02:49:05,VALID,1003.51,VALID,0,INVALID,113.548,VALID,0,VALID,25.4149,VALID,339,VALID,0.688672,
2010-08-06, 02:50:05,VALID,1003.46,VALID,0,INVALID,113.602,VALID,0,VALID,25.4169,VALID,354,VALID,0.514453,
2010-08-06, 02:51:05,VALID,1003.44,VALID,0,INVALID,113.632,VALID,0,VALID,25.4363,VALID,350,VALID,1.07344,
2010-08-06, 02:52:05,VALID,1003.41,VALID,0,INVALID,113.731,VALID,0,VALID,25.376,VALID,354,VALID,1.24609,
2010-08-06, 02:53:05,VALID,1003.39,VALID,0,INVALID,113.884,VALID,0,VALID,25.3584,VALID,356,VALID,1.09805,
2010-08-06, 02:54:05,VALID,1003.38,VALID,0,INVALID,113.953,VALID,0,VALID,25.3,VALID,353,VALID,0.941797,
2010-08-06, 02:55:05,VALID,1003.37,VALID,0,INVALID,114.067,VALID,0.100563,VALID,25.2378,VALID,357,VALID,0.695313,
2010-08-06, 02:56:05,VALID,1003.32,VALID,0,INVALID,114.204,VALID,0.100563,VALID,25.2202,VALID,352,VALID,0.446094,
2010-08-06, 02:57:05,VALID,1003.32,VALID,0,INVALID,114.265,VALID,0,VALID,25.1794,VALID,349,VALID,0.26875,
2010-08-06, 02:58:05,VALID,1003.3,VALID,0.5,INVALID,114.349,VALID,0.100563,VALID,25.1813,VALID,349,VALID,0.297656,
2010-08-06, 02:59:05,VALID,1003.27,VALID,0,INVALID,114.365,VALID,0.100563,VALID,25.121,VALID,349,VALID,0.217969,
2010-08-06, 03:00:05,VALID,1003.28,VALID,0,INVALID,114.418,VALID,0,VALID,25.1229,VALID,349,VALID,0,
2010-08-06, 03:01:05,VALID,1003.31,VALID,0,INVALID,114.433,VALID,0,VALID,25.1423,VALID,349,VALID,0.0859375,
2010-08-06, 03:02:05,VALID,1003.33,VALID,0,INVALID,114.448,VALID,0.100563,VALID,25.1034,VALID,349,VALID,0,
2010-08-06, 03:03:05,VALID,1003.36,VALID,0,INVALID,114.441,VALID,0.100563,VALID,25.0839,VALID,349,VALID,0,
2010-08-06, 03:04:05,VALID,1003.38,VALID,0,INVALID,114.426,VALID,0.100563,VALID,25.1034,VALID,349,VALID,0,
2010-08-06, 03:05:05,VALID,1003.38,VALID,0,INVALID,114.426,VALID,0,VALID,25.0839,VALID,349,VALID,0,
2010-08-06, 03:06:05,VALID,1003.39,VALID,0,INVALID,114.418,VALID,0.100563,VALID,25.045,VALID,349,VALID,0,
2010-08-06, 03:07:05,VALID,1003.39,VALID,0,INVALID,114.403,VALID,0,VALID,25.0255,VALID,349,VALID,0,
2010-08-06, 03:08:05,VALID,1003.38,VALID,0,INVALID,114.372,VALID,0.100563,VALID,25.0255,VALID,349,VALID,0.046875,
2010-08-06, 03:09:05,VALID,1003.39,VALID,0,INVALID,114.349,VALID,0,VALID,25.006,VALID,349,VALID,0.351563,
2010-08-06, 03:10:05,VALID,1003.35,VALID,0,INVALID,114.334,VALID,0.100563,VALID,24.9847,VALID,349,VALID,0.601563,
2010-08-06, 03:11:05,VALID,1003.33,VALID,0,INVALID,114.288,VALID,0.100563,VALID,24.9866,VALID,350,VALID,0.65,
2010-08-06, 03:12:05,VALID,1003.32,VALID,0,INVALID,114.235,VALID,0.100563,VALID,24.9263,VALID,351,VALID,0.715625,
2010-08-06, 03:13:05,VALID,1003.31,VALID,0,INVALID,114.235,VALID,0,VALID,24.9068,VALID,353,VALID,0.892578,
2010-08-06, 03:14:05,VALID,1003.35,VALID,0,INVALID,114.143,VALID,0.100563,VALID,24.9087,VALID,357,VALID,0.621875,
2010-08-06, 03:15:05,VALID,1003.38,VALID,0,INVALID,114.075,VALID,0.100563,VALID,24.8484,VALID,357,VALID,0.488672,
2010-08-06, 03:16:05,VALID,1003.39,VALID,0,INVALID,114.037,VALID,0.100563,VALID,24.8697,VALID,357,VALID,0.353125,
2010-08-06, 03:17:05,VALID,1003.41,VALID,0,INVALID,113.968,VALID,0,VALID,24.8484,VALID,357,VALID,0.235547,
2010-08-06, 03:18:05,VALID,1003.41,VALID,0,INVALID,113.914,VALID,0.100563,VALID,24.8095,VALID,357,VALID,0.116406,
2010-08-06, 03:19:05,VALID,1003.43,VALID,0,INVALID,113.861,VALID,0.100563,VALID,24.8308,VALID,357,VALID,0,
2010-08-06, 03:20:05,VALID,1003.42,VALID,0,INVALID,113.831,VALID,0.100563,VALID,24.8503,VALID,357,VALID,0,
2010-08-06, 03:21:05,VALID,1003.44,VALID,0,INVALID,113.777,VALID,0.100563,VALID,24.8308,VALID,357,VALID,0,
2010-08-06, 03:22:05,VALID,1003.45,VALID,0,INVALID,113.708,VALID,0.100563,VALID,24.8289,VALID,357,VALID,0,
2010-08-06, 03:23:05,VALID,1003.49,VALID,0,INVALID,113.655,VALID,0,VALID,24.8697,VALID,357,VALID,0.195313,
2010-08-06, 03:24:05,VALID,1003.54,VALID,0,INVALID,113.586,VALID,0.100563,VALID,24.8697,VALID,27,VALID,0.620703,
2010-08-06, 03:25:05,VALID,1003.56,VALID,0,INVALID,113.518,VALID,0,VALID,24.8911,VALID,28,VALID,0.711328,
2010-08-06, 03:26:05,VALID,1003.57,VALID,0,INVALID,113.457,VALID,0,VALID,24.8697,VALID,28,VALID,0.796094,
2010-08-06, 03:27:05,VALID,1003.55,VALID,0,INVALID,113.457,VALID,0,VALID,24.8503,VALID,28,VALID,0.749609,
2010-08-06, 03:28:05,VALID,1003.52,VALID,0,INVALID,113.403,VALID,0,VALID,24.8716,VALID,27,VALID,0.640234,
2010-08-06, 03:29:05,VALID,1003.52,VALID,0,INVALID,113.365,VALID,0,VALID,24.893,VALID,27,VALID,0.197266,
2010-08-06, 03:30:05,VALID,1003.56,VALID,0,INVALID,113.342,VALID,0,VALID,24.8716,VALID,27,VALID,0.172266,
2010-08-06, 03:31:05,VALID,1003.54,VALID,0,INVALID,113.235,VALID,0,VALID,24.8716,VALID,27,VALID,0.175391,
2010-08-06, 03:32:05,VALID,1003.56,VALID,0,INVALID,113.19,VALID,0.100563,VALID,24.9106,VALID,27,VALID,0.423047,
2010-08-06, 03:33:05,VALID,1003.57,VALID,0,INVALID,113.152,VALID,0,VALID,24.9106,VALID,27,VALID,0.0417969,
2010-08-06, 03:34:05,VALID,1003.55,VALID,0,INVALID,113.152,VALID,0,VALID,24.8892,VALID,27,VALID,0.162891,
2010-08-06, 03:35:05,VALID,1003.54,VALID,0,INVALID,113.159,VALID,0,VALID,24.8697,VALID,27,VALID,0.312109,
2010-08-06, 03:36:05,VALID,1003.53,VALID,0,INVALID,113.159,VALID,0,VALID,24.8697,VALID,27,VALID,0.2875,
2010-08-06, 03:37:05,VALID,1003.53,VALID,0,INVALID,113.167,VALID,0,VALID,24.8697,VALID,27,VALID,0.317969,